Location: B?dimalle
(17.1788°N, 80.5377°E)
Time: 12:03:45
(UTC+00:00)

A-11 Canister half - All Passes

Search period start: 16 February 2026 00:00
Search period end: 26 February 2026 00:00
Orbit: 1512 x 1687 km, 47.2° (Epoch: 16 February)

Date Brightness Start Highest point End Pass type
(mag) Time Alt. Az. Time Alt. Az. Time Alt. Az.
16 Feb - 00:05:56 10° NW 00:15:24 81° SW 00:24:38 10° SE visible
16 Feb - 02:15:14 10° W 02:19:35 14° SW 02:23:57 10° SSW daylight
16 Feb - 13:05:28 10° SSW 13:15:08 51° SE 13:24:48 10° ENE visible
16 Feb - 15:10:42 10° WSW 15:20:11 43° NW 15:29:38 10° NNE visible
16 Feb - 17:23:38 10° NW 17:27:42 13° NNW 17:31:47 10° N visible
16 Feb - 21:39:14 10° NNW 21:46:43 25° NNE 21:53:58 10° E visible
16 Feb - 23:42:51 10° NW 23:52:23 87° SW 00:01:39 10° SE visible
17 Feb - 01:51:26 10° W 01:56:35 16° SW 02:01:43 10° SSW daylight
17 Feb - 12:42:34 10° SSW 12:52:05 47° SE 13:01:36 10° ENE visible
17 Feb - 14:47:26 10° WSW 14:57:03 46° NW 15:06:38 10° NNE visible
17 Feb - 16:59:48 10° NW 17:04:24 14° NNW 17:08:59 10° N visible
17 Feb - 21:16:17 10° NNW 21:23:33 23° NNE 21:30:34 10° E visible
17 Feb - 23:19:47 10° NW 23:29:21 87° NE 23:38:38 10° SE visible
18 Feb - 01:27:46 10° W 01:33:35 18° SW 01:39:21 10° SSW daylight
18 Feb - 12:19:43 10° SSW 12:29:02 43° SE 12:38:23 10° ENE daylight
18 Feb - 14:24:11 10° WSW 14:33:56 50° NW 14:43:39 10° NNE visible
18 Feb - 16:36:01 10° NW 16:41:07 15° NNW 16:46:10 10° N visible
18 Feb - 20:53:21 10° NNW 21:00:21 22° NNE 21:07:09 10° ENE visible
18 Feb - 22:56:43 10° NW 23:06:20 81° NE 23:15:36 10° SE visible
19 Feb - 01:04:14 10° W 01:10:34 20° SW 01:16:52 10° S daylight
19 Feb - 11:56:53 10° SSW 12:05:59 39° SE 12:15:08 10° ENE daylight
19 Feb - 14:00:58 10° WSW 14:10:48 54° NW 14:20:39 10° NNE visible
19 Feb - 16:12:18 10° WNW 16:17:50 16° NNW 16:23:19 10° N visible
19 Feb - 20:30:25 10° NNW 20:37:09 20° NNE 20:43:42 10° ENE visible
19 Feb - 22:33:41 10° NW 22:43:17 75° NE 22:52:33 10° SE visible
20 Feb - 00:40:45 10° WNW 00:47:35 23° SW 00:54:20 10° S visible
20 Feb - 11:34:04 10° S 11:42:56 36° SE 11:51:53 10° ENE daylight
20 Feb - 13:37:46 10° WSW 13:47:41 58° NW 13:57:38 10° NNE visible
20 Feb - 15:48:37 10° WNW 15:54:33 17° NNW 16:00:28 10° N visible
20 Feb - 20:07:29 10° NNW 20:13:56 19° NNE 20:20:12 10° ENE visible
20 Feb - 22:10:38 10° NW 22:20:14 70° NE 22:29:29 10° SE visible
21 Feb - 00:17:19 10° WNW 00:24:35 25° SW 00:31:44 10° S visible
21 Feb - 11:11:18 10° S 11:19:54 33° SE 11:28:34 10° ENE daylight
21 Feb - 13:14:36 10° SW 13:24:35 62° NW 13:34:37 10° NE visible
21 Feb - 15:24:58 10° WNW 15:31:17 18° NNW 15:37:35 10° NNE visible
21 Feb - 19:44:34 10° NNW 19:50:42 18° NNE 19:56:42 10° ENE visible
21 Feb - 21:47:35 10° NW 21:57:10 65° NE 22:06:24 10° SE visible
21 Feb - 23:53:57 10° WNW 00:01:34 28° SW 00:09:05 10° S visible
22 Feb - 10:48:34 10° S 10:56:51 30° SE 11:05:13 10° ENE daylight
22 Feb - 12:51:27 10° SW 13:01:28 67° NW 13:11:35 10° NE visible
22 Feb - 15:01:22 10° WNW 15:08:02 19° NNW 15:14:41 10° NNE visible
22 Feb - 19:21:39 10° N 19:27:28 17° NNE 19:33:09 10° ENE night (unlit)
22 Feb - 21:24:34 10° NW 21:34:07 60° NE 21:43:18 10° ESE visible
22 Feb - 23:30:37 10° WNW 23:38:35 31° SW 23:46:23 10° S visible
23 Feb - 10:25:53 10° S 10:33:49 27° SE 10:41:50 10° ENE daylight
23 Feb - 12:28:19 10° SW 12:38:22 72° NW 12:48:33 10° NE daylight
23 Feb - 14:37:47 10° WNW 14:44:47 20° NNW 14:51:47 10° NNE visible
23 Feb - 18:58:44 10° N 19:04:13 16° NNE 19:09:34 10° ENE night (unlit)
23 Feb - 21:01:33 10° NNW 21:11:03 56° NE 21:20:10 10° ESE visible
23 Feb - 23:07:20 10° WNW 23:15:35 34° SW 23:23:40 10° S visible
24 Feb - 10:03:14 10° S 10:10:47 25° SE 10:18:25 10° ENE daylight
24 Feb - 12:05:12 10° SW 12:15:17 77° NW 12:25:30 10° NE daylight
24 Feb - 14:14:15 10° WNW 14:21:32 22° NNW 14:28:52 10° NNE visible
24 Feb - 18:35:50 10° N 18:40:57 15° NNE 18:45:58 10° NE night (unlit)
24 Feb - 20:38:32 10° NNW 20:47:58 52° NE 20:57:02 10° ESE visible
24 Feb - 22:44:03 10° WNW 22:52:35 37° SW 23:00:55 10° S visible
25 Feb - 09:40:38 10° S 09:47:45 22° SE 09:54:56 10° E daylight
25 Feb - 11:42:07 10° SW 11:52:12 82° NW 12:02:26 10° NE daylight
25 Feb - 13:50:44 10° W 13:58:19 23° NNW 14:05:57 10° NNE visible
25 Feb - 18:12:57 10° N 18:17:40 14° NNE 18:22:19 10° NE night (unlit)
25 Feb - 20:15:30 10° NNW 20:24:52 48° NE 20:33:52 10° ESE visible
25 Feb - 22:20:49 10° WNW 22:29:35 41° SW 22:38:07 10° SSE visible
